Time,TemperatureF,DewpointF,PressureIn,WindDirection,WindDirectionDegrees,WindSpeedMPH,WindSpeedGustMPH,Humidity,HourlyPrecipIn,Conditions,Clouds,dailyrainin,SoftwareType,DateUTC
2013-02-24 00:01:00,11.1,4.2,29.89,SE,135,0.0,0.0,73,0.00,CLR,,0.00,WeatherDisplay:10.37,2013-02-24 06:01:00,
2013-02-24 00:06:00,11.1,4.4,29.89,ESE,112,0.0,0.0,74,0.00,CLR,,0.00,WeatherDisplay:10.37,2013-02-24 06:06:00,
2013-02-24 00:11:00,10.8,4.1,29.89,ESE,112,0.0,0.0,74,0.00,CLR,,0.00,WeatherDisplay:10.37,2013-02-24 06:11:00,
2013-02-24 00:16:00,10.8,4.1,29.90,ESE,112,0.0,0.0,74,0.00,CLR,,0.00,WeatherDisplay:10.37,2013-02-24 06:16:00,
2013-02-24 00:21:00,10.8,4.1,29.89,ESE,112,0.0,0.0,74,0.00,CLR,,0.00,WeatherDisplay:10.37,2013-02-24 06:21:00,
2013-02-24 00:26:00,10.8,4.1,29.90,ESE,112,0.0,0.0,74,0.00,CLR,,0.00,WeatherDisplay:10.37,2013-02-24 06:26:00,
2013-02-24 00:31:00,10.8,4.1,29.90,ESE,112,0.0,0.0,74,0.00,CLR,,0.00,WeatherDisplay:10.37,2013-02-24 06:31:00,
2013-02-24 00:36:00,11.1,4.4,29.90,ESE,112,0.0,0.0,74,0.00,CLR,,0.00,WeatherDisplay:10.37,2013-02-24 06:36:00,
2013-02-24 00:41:00,11.1,4.4,29.91,ESE,112,0.0,0.0,74,0.00,CLR,,0.00,WeatherDisplay:10.37,2013-02-24 06:41:00,
2013-02-24 00:46:00,11.1,4.4,29.90,ESE,112,0.0,0.0,74,0.00,CLR,,0.00,WeatherDisplay:10.37,2013-02-24 06:46:00,
2013-02-24 00:51:00,11.1,4.4,29.91,SE,135,0.0,0.0,74,0.00,CLR,,0.00,WeatherDisplay:10.37,2013-02-24 06:51:00,
2013-02-24 00:56:00,11.3,4.9,29.91,SE,135,0.0,0.0,75,0.00,CLR,,0.00,WeatherDisplay:10.37,2013-02-24 06:56:00,
2013-02-24 01:01:00,11.3,4.9,29.91,SE,135,0.0,0.0,75,0.00,CLR,,0.00,WeatherDisplay:10.37,2013-02-24 07:01:00,
2013-02-24 01:06:00,11.3,4.9,29.91,SE,135,0.0,0.0,75,0.00,CLR,,0.00,WeatherDisplay:10.37,2013-02-24 07:06:00,
2013-02-24 01:11:00,11.5,5.1,29.91,SE,135,2.3,2.3,75,0.00,CLR,,0.00,WeatherDisplay:10.37,2013-02-24 07:11:00,
2013-02-24 01:16:00,11.7,5.6,29.91,SE,135,0.0,0.0,76,0.00,CLR,,0.00,WeatherDisplay:10.37,2013-02-24 07:16:00,
2013-02-24 01:21:00,11.7,5.6,29.91,SE,135,0.0,0.0,76,0.00,CLR,,0.00,WeatherDisplay:10.37,2013-02-24 07:21:00,
2013-02-24 01:26:00,11.8,5.7,29.91,SE,135,0.0,0.0,76,0.00,CLR,,0.00,WeatherDisplay:10.37,2013-02-24 07:26:00,
2013-02-24 01:31:00,11.7,5.6,29.91,SE,135,0.0,0.0,76,0.00,CLR,,0.00,WeatherDisplay:10.37,2013-02-24 07:31:00,
2013-02-24 01:36:00,11.3,5.2,29.91,SE,135,0.0,0.0,76,0.00,CLR,,0.00,WeatherDisplay:10.37,2013-02-24 07:36:00,
2013-02-24 01:41:00,11.3,5.2,29.91,SE,135,0.0,0.0,76,0.00,CLR,,0.00,WeatherDisplay:10.37,2013-02-24 07:41:00,
2013-02-24 01:46:00,11.1,4.7,29.92,SE,135,0.0,0.0,75,0.00,CLR,,0.00,WeatherDisplay:10.37,2013-02-24 07:46:00,
2013-02-24 01:51:00,11.1,4.7,29.92,SE,135,0.0,0.0,75,0.00,CLR,,0.00,WeatherDisplay:10.37,2013-02-24 07:51:00,
2013-02-24 01:56:00,11.3,5.2,29.92,SE,135,0.0,0.0,76,0.00,CLR,,0.00,WeatherDisplay:10.37,2013-02-24 07:56:00,
2013-02-24 02:01:00,11.1,4.7,29.92,SE,135,0.0,0.0,75,0.00,CLR,,0.00,WeatherDisplay:10.37,2013-02-24 08:01:00,
2013-02-24 02:06:00,10.6,4.2,29.92,SE,135,0.0,0.0,75,0.00,CLR,,0.00,WeatherDisplay:10.37,2013-02-24 08:06:00,
2013-02-24 02:11:00,10.4,4.0,29.92,SE,135,0.0,0.0,75,0.00,CLR,,0.00,WeatherDisplay:10.37,2013-02-24 08:11:00,
2013-02-24 02:16:00,10.2,3.6,29.92,SE,135,0.0,0.0,74,0.00,CLR,,0.00,WeatherDisplay:10.37,2013-02-24 08:16:00,
2013-02-24 02:21:00,10.4,4.0,29.92,SE,135,0.0,0.0,75,0.00,CLR,,0.00,WeatherDisplay:10.37,2013-02-24 08:21:00,
2013-02-24 02:26:00,10.6,4.2,29.92,SE,135,0.0,0.0,75,0.00,CLR,,0.00,WeatherDisplay:10.37,2013-02-24 08:26:00,
2013-02-24 02:31:00,10.6,4.2,29.92,SE,135,0.0,0.0,75,0.00,CLR,,0.00,WeatherDisplay:10.37,2013-02-24 08:31:00,
2013-02-24 02:36:00,10.6,4.2,29.92,SE,135,0.0,0.0,75,0.00,CLR,,0.00,WeatherDisplay:10.37,2013-02-24 08:36:00,
2013-02-24 02:41:00,10.6,4.2,29.92,SE,135,0.0,0.0,75,0.00,CLR,,0.00,WeatherDisplay:10.37,2013-02-24 08:41:00,
2013-02-24 02:46:00,10.6,4.2,29.92,SE,135,0.0,0.0,75,0.00,CLR,,0.00,WeatherDisplay:10.37,2013-02-24 08:46:00,
2013-02-24 02:51:00,10.6,4.2,29.92,SE,135,0.0,0.0,75,0.00,CLR,,0.00,WeatherDisplay:10.37,2013-02-24 08:51:00,
2013-02-24 02:56:00,10.6,4.2,29.92,SE,135,0.0,0.0,75,0.00,CLR,,0.00,WeatherDisplay:10.37,2013-02-24 08:56:00,
2013-02-24 03:01:00,10.6,4.2,29.92,SE,135,0.0,0.0,75,0.00,CLR,,0.00,WeatherDisplay:10.37,2013-02-24 09:01:00,
2013-02-24 03:06:00,10.6,4.2,29.92,SE,135,0.0,0.0,75,0.00,CLR,,0.00,WeatherDisplay:10.37,2013-02-24 09:06:00,
2013-02-24 03:11:00,10.6,4.2,29.92,SE,135,0.0,0.0,75,0.00,CLR,,0.00,WeatherDisplay:10.37,2013-02-24 09:11:00,
2013-02-24 03:16:00,10.4,4.0,29.92,SE,135,0.0,0.0,75,0.00,CLR,,0.00,WeatherDisplay:10.37,2013-02-24 09:16:00,
2013-02-24 03:21:00,10.4,4.0,29.92,SE,135,0.0,0.0,75,0.00,CLR,,0.00,WeatherDisplay:10.37,2013-02-24 09:21:00,
2013-02-24 03:26:00,10.6,4.2,29.92,SE,135,0.0,0.0,75,0.00,CLR,,0.00,WeatherDisplay:10.37,2013-02-24 09:26:00,
2013-02-24 03:31:00,10.6,4.2,29.92,SE,135,0.0,0.0,75,0.00,CLR,,0.00,WeatherDisplay:10.37,2013-02-24 09:31:00,
2013-02-24 03:36:00,10.6,4.2,29.92,SE,135,0.0,0.0,75,0.00,CLR,,0.00,WeatherDisplay:10.37,2013-02-24 09:36:00,
2013-02-24 03:41:00,10.0,3.7,29.92,SE,135,0.0,0.0,75,0.00,CLR,,0.00,WeatherDisplay:10.37,2013-02-24 09:41:00,
2013-02-24 03:46:00,10.0,3.7,29.92,SE,135,0.0,0.0,75,0.00,CLR,,0.00,WeatherDisplay:10.37,2013-02-24 09:46:00,
2013-02-24 03:51:00,9.9,3.5,29.92,SE,135,0.0,0.0,75,0.00,CLR,,0.00,WeatherDisplay:10.37,2013-02-24 09:51:00,
2013-02-24 03:56:00,9.9,3.5,29.92,SE,135,0.0,0.0,75,0.00,CLR,,0.00,WeatherDisplay:10.37,2013-02-24 09:56:00,
2013-02-24 04:01:00,9.9,3.5,29.92,SE,135,0.0,0.0,75,0.00,CLR,,0.00,WeatherDisplay:10.37,2013-02-24 10:01:00,
2013-02-24 04:06:00,9.9,3.5,29.92,SE,135,0.0,0.0,75,0.00,CLR,,0.00,WeatherDisplay:10.37,2013-02-24 10:06:00,
2013-02-24 04:11:00,9.9,3.5,29.92,SE,135,0.0,0.0,75,0.00,CLR,,0.00,WeatherDisplay:10.37,2013-02-24 10:11:00,
2013-02-24 04:16:00,10.0,3.7,29.92,SE,135,0.0,0.0,75,0.00,CLR,,0.00,WeatherDisplay:10.37,2013-02-24 10:16:00,
2013-02-24 04:21:00,10.2,3.9,29.92,SE,135,0.0,0.0,75,0.00,CLR,,0.00,WeatherDisplay:10.37,2013-02-24 10:21:00,
2013-02-24 04:26:00,10.6,4.2,29.92,SE,135,0.0,0.0,75,0.00,CLR,,0.00,WeatherDisplay:10.37,2013-02-24 10:26:00,
2013-02-24 04:31:00,10.6,4.5,29.92,SE,135,0.0,0.0,76,0.00,CLR,,0.00,WeatherDisplay:10.37,2013-02-24 10:31:00,
2013-02-24 04:36:00,10.6,4.5,29.92,SE,135,0.0,0.0,76,0.00,CLR,,0.00,WeatherDisplay:10.37,2013-02-24 10:36:00,
2013-02-24 04:41:00,10.4,4.3,29.92,SE,135,0.0,0.0,76,0.00,CLR,,0.00,WeatherDisplay:10.37,2013-02-24 10:41:00,
2013-02-24 04:46:00,10.4,4.3,29.92,SE,135,0.0,0.0,76,0.00,CLR,,0.00,WeatherDisplay:10.37,2013-02-24 10:46:00,
2013-02-24 04:51:00,10.0,4.0,29.92,SE,135,0.0,0.0,76,0.00,CLR,,0.00,WeatherDisplay:10.37,2013-02-24 10:51:00,
2013-02-24 04:56:00,10.2,4.2,29.93,SE,135,0.0,0.0,76,0.00,CLR,,0.00,WeatherDisplay:10.37,2013-02-24 10:56:00,
2013-02-24 05:01:00,10.6,4.5,29.93,SE,135,0.0,0.0,76,0.00,CLR,,0.00,WeatherDisplay:10.37,2013-02-24 11:01:00,
2013-02-24 05:06:00,10.4,4.3,29.93,SE,135,0.0,0.0,76,0.00,CLR,,0.00,WeatherDisplay:10.37,2013-02-24 11:06:00,
2013-02-24 05:11:00,10.0,4.0,29.93,SE,135,0.0,0.0,76,0.00,CLR,,0.00,WeatherDisplay:10.37,2013-02-24 11:11:00,
2013-02-24 05:16:00,9.5,3.2,29.94,ESE,112,0.0,0.0,75,0.00,CLR,,0.00,WeatherDisplay:10.37,2013-02-24 11:16:00,
2013-02-24 05:21:00,9.0,2.6,29.94,ESE,112,0.0,0.0,75,0.00,CLR,,0.00,WeatherDisplay:10.37,2013-02-24 11:21:00,
2013-02-24 05:26:00,8.8,2.2,29.94,ESE,112,0.0,0.0,74,0.00,CLR,,0.00,WeatherDisplay:10.37,2013-02-24 11:26:00,
2013-02-24 05:31:00,8.4,1.8,29.94,ESE,112,0.0,0.0,74,0.00,CLR,,0.00,WeatherDisplay:10.37,2013-02-24 11:31:00,
2013-02-24 05:36:00,8.8,2.2,29.94,ESE,112,0.0,0.0,74,0.00,CLR,,0.00,WeatherDisplay:10.37,2013-02-24 11:36:00,
2013-02-24 05:41:00,8.8,2.2,29.95,ESE,112,0.0,0.0,74,0.00,CLR,,0.00,WeatherDisplay:10.37,2013-02-24 11:41:00,
2013-02-24 05:46:00,8.8,2.2,29.95,ESE,112,0.0,0.0,74,0.00,CLR,,0.00,WeatherDisplay:10.37,2013-02-24 11:46:00,
2013-02-24 05:51:00,8.8,2.5,29.95,ESE,112,0.0,0.0,75,0.00,CLR,,0.00,WeatherDisplay:10.37,2013-02-24 11:51:00,
2013-02-24 05:56:00,9.0,2.6,29.95,ESE,112,0.0,0.0,75,0.00,CLR,,0.00,WeatherDisplay:10.37,2013-02-24 11:56:00,
2013-02-24 06:01:00,9.1,2.8,29.94,ESE,112,0.0,0.0,75,0.00,CLR,,0.00,WeatherDisplay:10.37,2013-02-24 12:01:00,
2013-02-24 06:06:00,9.3,3.0,29.95,ESE,112,0.0,0.0,75,0.00,CLR,,0.00,WeatherDisplay:10.37,2013-02-24 12:06:00,
2013-02-24 06:11:00,9.5,3.5,29.95,ESE,112,0.0,0.0,76,0.00,CLR,,0.00,WeatherDisplay:10.37,2013-02-24 12:11:00,
2013-02-24 06:16:00,9.5,3.5,29.95,ESE,112,0.0,0.0,76,0.00,CLR,,0.00,WeatherDisplay:10.37,2013-02-24 12:16:00,
2013-02-24 06:21:00,9.5,3.5,29.95,SE,135,0.0,0.0,76,0.00,CLR,,0.00,WeatherDisplay:10.37,2013-02-24 12:21:00,
2013-02-24 06:26:00,9.5,3.5,29.95,SE,135,0.0,0.0,76,0.00,CLR,,0.00,WeatherDisplay:10.37,2013-02-24 12:26:00,
2013-02-24 06:31:00,9.5,3.5,29.96,SE,135,0.0,0.0,76,0.00,CLR,,0.00,WeatherDisplay:10.37,2013-02-24 12:31:00,
2013-02-24 06:36:00,10.0,4.0,29.96,SE,135,0.0,0.0,76,0.00,CLR,,0.00,WeatherDisplay:10.37,2013-02-24 12:36:00,
2013-02-24 06:42:00,10.2,4.4,29.96,SE,135,0.0,0.0,77,0.00,CLR,,0.00,WeatherDisplay:10.37,2013-02-24 12:42:00,
2013-02-24 06:47:00,10.6,4.8,29.96,SE,135,0.0,0.0,77,0.00,CLR,,0.00,WeatherDisplay:10.37,2013-02-24 12:47:00,
2013-02-24 06:52:00,10.6,4.8,29.96,SE,135,0.0,0.0,77,0.00,CLR,,0.00,WeatherDisplay:10.37,2013-02-24 12:52:00,
2013-02-24 06:57:00,10.6,4.8,29.96,SE,135,0.0,0.0,77,0.00,CLR,,0.00,WeatherDisplay:10.37,2013-02-24 12:57:00,
2013-02-24 07:02:00,10.6,4.8,29.96,SE,135,0.0,0.0,77,0.00,CLR,,0.00,WeatherDisplay:10.37,2013-02-24 13:02:00,
2013-02-24 07:07:00,10.8,5.0,29.96,SE,135,0.0,0.0,77,0.00,CLR,,0.00,WeatherDisplay:10.37,2013-02-24 13:07:00,
2013-02-24 07:12:00,10.6,4.8,29.96,SE,135,0.0,0.0,77,0.00,CLR,,0.00,WeatherDisplay:10.37,2013-02-24 13:12:00,
2013-02-24 07:17:00,10.6,4.8,29.96,SE,135,0.0,0.0,77,0.00,CLR,,0.00,WeatherDisplay:10.37,2013-02-24 13:17:00,
2013-02-24 07:22:00,10.6,4.8,29.96,SE,135,0.0,0.0,77,0.00,CLR,,0.00,WeatherDisplay:10.37,2013-02-24 13:22:00,
2013-02-24 07:27:00,11.1,5.3,29.96,SE,135,0.0,0.0,77,0.00,CLR,,0.00,WeatherDisplay:10.37,2013-02-24 13:27:00,
2013-02-24 07:32:00,12.0,6.5,29.97,SE,135,0.0,0.0,78,0.00,CLR,,0.00,WeatherDisplay:10.37,2013-02-24 13:32:00,
2013-02-24 07:37:00,12.9,7.4,29.97,SE,135,0.0,0.0,78,0.00,CLR,,0.00,WeatherDisplay:10.37,2013-02-24 13:37:00,
2013-02-24 07:42:00,13.8,8.5,29.97,SE,135,0.0,0.0,79,0.00,CLR,,0.00,WeatherDisplay:10.37,2013-02-24 13:42:00,
2013-02-24 07:47:00,14.2,8.6,29.97,SE,135,0.0,0.0,78,0.00,CLR,,0.00,WeatherDisplay:10.37,2013-02-24 13:47:00,
2013-02-24 07:52:00,14.4,8.8,29.97,SE,135,0.0,0.0,78,0.00,CLR,,0.00,WeatherDisplay:10.37,2013-02-24 13:52:00,
2013-02-24 07:57:00,14.2,8.3,29.97,SSW,202,0.0,0.0,77,0.00,CLR,,0.00,WeatherDisplay:10.37,2013-02-24 13:57:00,
2013-02-24 08:02:00,14.2,8.0,29.97,SSW,202,4.6,4.6,76,0.00,CLR,,0.00,WeatherDisplay:10.37,2013-02-24 14:02:00,
2013-02-24 08:07:00,14.5,8.4,29.97,SSW,202,4.6,0.0,76,0.00,CLR,,0.00,WeatherDisplay:10.37,2013-02-24 14:07:00,
2013-02-24 08:12:00,15.1,8.9,29.97,SSW,202,0.0,0.0,76,0.00,CLR,,0.00,WeatherDisplay:10.37,2013-02-24 14:12:00,
2013-02-24 08:17:00,16.0,9.7,29.97,South,180,0.0,0.0,76,0.00,CLR,,0.00,WeatherDisplay:10.37,2013-02-24 14:17:00,
2013-02-24 08:22:00,16.5,10.3,29.99,South,180,0.0,0.0,76,0.00,CLR,,0.00,WeatherDisplay:10.37,2013-02-24 14:22:00,
2013-02-24 08:27:00,18.0,11.7,29.99,South,180,0.0,0.0,76,0.00,CLR,,0.00,WeatherDisplay:10.37,2013-02-24 14:27:00,
2013-02-24 08:32:00,19.6,13.5,29.99,South,180,0.0,0.0,77,0.00,CLR,,0.00,WeatherDisplay:10.37,2013-02-24 14:32:00,
2013-02-24 08:37:00,21.6,15.5,29.99,South,180,0.0,0.0,77,0.00,CLR,,0.00,WeatherDisplay:10.37,2013-02-24 14:37:00,
2013-02-24 08:42:00,23.2,16.7,29.99,South,180,0.0,0.0,76,0.00,CLR,,0.00,WeatherDisplay:10.37,2013-02-24 14:42:00,
2013-02-24 08:47:00,25.0,18.2,29.99,South,180,0.0,0.0,75,0.00,CLR,,0.00,WeatherDisplay:10.37,2013-02-24 14:47:00,
2013-02-24 08:52:00,25.7,18.2,29.99,South,180,0.0,0.0,73,0.00,CLR,,0.00,WeatherDisplay:10.37,2013-02-24 14:52:00,
2013-02-24 08:57:00,26.4,18.6,29.99,South,180,0.0,0.0,72,0.00,CLR,,0.00,WeatherDisplay:10.37,2013-02-24 14:57:00,
2013-02-24 09:02:00,27.0,18.5,29.99,South,180,0.0,0.0,70,0.00,CLR,,0.00,WeatherDisplay:10.37,2013-02-24 15:02:00,
2013-02-24 09:07:00,27.5,18.3,29.99,South,180,0.0,0.0,68,0.00,CLR,,0.00,WeatherDisplay:10.37,2013-02-24 15:07:00,
2013-02-24 09:12:00,28.6,19.0,29.99,South,180,0.0,0.0,67,0.00,CLR,,0.00,WeatherDisplay:10.37,2013-02-24 15:12:00,
2013-02-24 09:17:00,29.7,19.7,29.99,South,180,0.0,0.0,66,0.00,CLR,,0.00,WeatherDisplay:10.37,2013-02-24 15:17:00,
2013-02-24 09:22:00,30.4,19.6,29.99,South,180,2.3,2.3,64,0.00,CLR,,0.00,WeatherDisplay:10.37,2013-02-24 15:22:00,
2013-02-24 09:27:00,30.6,19.5,30.00,South,180,3.5,3.5,63,0.00,CLR,,0.00,WeatherDisplay:10.37,2013-02-24 15:27:00,
2013-02-24 09:32:00,30.9,19.4,30.00,South,180,1.6,1.7,62,0.00,CLR,,0.00,WeatherDisplay:10.37,2013-02-24 15:32:00,
2013-02-24 09:37:00,31.1,19.2,30.00,South,180,2.7,2.9,61,0.00,CLR,,0.00,WeatherDisplay:10.37,2013-02-24 15:37:00,
2013-02-24 09:42:00,31.3,19.4,30.00,South,180,5.1,5.1,61,0.00,CLR,,0.00,WeatherDisplay:10.37,2013-02-24 15:42:00,
2013-02-24 09:47:00,31.8,19.5,30.00,South,180,5.8,5.8,60,0.00,CLR,,0.00,WeatherDisplay:10.37,2013-02-24 15:47:00,
2013-02-24 09:52:00,32.5,20.2,30.00,SSW,202,5.8,5.8,60,0.00,CLR,,0.00,WeatherDisplay:10.37,2013-02-24 15:52:00,
2013-02-24 09:57:00,32.9,20.5,30.00,South,180,3.5,3.5,60,0.00,CLR,,0.00,WeatherDisplay:10.37,2013-02-24 15:57:00,
2013-02-24 10:02:00,33.1,20.3,30.00,South,180,5.8,5.8,59,0.00,CLR,,0.00,WeatherDisplay:10.37,2013-02-24 16:02:00,
2013-02-24 10:07:00,32.7,20.0,30.00,SSW,202,5.9,6.4,59,0.00,CLR,,0.00,WeatherDisplay:10.37,2013-02-24 16:07:00,
2013-02-24 10:12:00,32.4,19.6,30.00,South,180,5.1,5.1,59,0.00,CLR,,0.00,WeatherDisplay:10.37,2013-02-24 16:12:00,
2013-02-24 10:17:00,32.4,19.6,30.00,South,180,6.9,6.9,59,0.00,CLR,,0.00,WeatherDisplay:10.37,2013-02-24 16:17:00,
2013-02-24 10:22:00,32.2,19.4,30.00,South,180,6.9,7.2,59,0.00,CLR,,0.00,WeatherDisplay:10.37,2013-02-24 16:22:00,
2013-02-24 10:27:00,32.7,20.4,30.00,South,180,5.8,6.0,60,0.00,CLR,,0.00,WeatherDisplay:10.37,2013-02-24 16:27:00,
2013-02-24 10:32:00,33.3,21.3,30.00,South,180,5.8,5.8,61,0.00,CLR,,0.00,WeatherDisplay:10.37,2013-02-24 16:32:00,
2013-02-24 10:37:00,34.0,21.9,30.01,South,180,2.7,2.9,61,0.00,CLR,,0.00,WeatherDisplay:10.37,2013-02-24 16:37:00,
2013-02-24 10:42:00,35.2,23.1,30.00,SSE,158,2.3,2.3,61,0.00,CLR,,0.00,WeatherDisplay:10.37,2013-02-24 16:42:00,
2013-02-24 10:47:00,36.3,24.1,30.01,South,180,2.4,2.6,61,0.00,CLR,,0.00,WeatherDisplay:10.37,2013-02-24 16:47:00,
2013-02-24 10:52:00,37.8,25.1,30.01,South,180,0.0,0.3,60,0.00,CLR,,0.00,WeatherDisplay:10.37,2013-02-24 16:52:00,
2013-02-24 10:57:00,38.1,25.4,30.01,SSE,158,0.0,0.0,60,0.00,CLR,,0.00,WeatherDisplay:10.37,2013-02-24 16:57:00,
2013-02-24 11:02:00,38.7,25.6,30.01,SSE,158,0.0,0.0,59,0.00,CLR,,0.00,WeatherDisplay:10.37,2013-02-24 17:02:00,
2013-02-24 11:07:00,38.8,25.3,30.02,SSE,158,0.0,0.0,58,0.00,CLR,,0.00,WeatherDisplay:10.37,2013-02-24 17:07:00,
2013-02-24 11:12:00,39.0,25.1,30.01,SSE,158,1.1,1.1,57,0.00,CLR,,0.00,WeatherDisplay:10.37,2013-02-24 17:12:00,
2013-02-24 11:17:00,39.4,25.4,30.02,SSE,158,1.1,0.0,57,0.00,CLR,,0.00,WeatherDisplay:10.37,2013-02-24 17:17:00,
2013-02-24 11:22:00,40.1,26.1,30.02,SSE,158,0.0,0.0,57,0.00,CLR,,0.00,WeatherDisplay:10.37,2013-02-24 17:22:00,
2013-02-24 11:27:00,40.5,26.4,30.02,SSE,158,1.1,1.1,57,0.00,CLR,,0.00,WeatherDisplay:10.37,2013-02-24 17:27:00,
2013-02-24 11:32:00,41.0,26.9,30.02,SSE,158,1.1,0.0,57,0.00,CLR,,0.00,WeatherDisplay:10.37,2013-02-24 17:32:00,
2013-02-24 11:37:00,42.1,27.9,30.02,SE,135,0.0,0.0,57,0.00,CLR,,0.00,WeatherDisplay:10.37,2013-02-24 17:37:00,
2013-02-24 11:42:00,42.8,28.2,30.02,SE,135,0.0,0.0,56,0.00,CLR,,0.00,WeatherDisplay:10.37,2013-02-24 17:42:00,
2013-02-24 11:47:00,43.2,28.1,30.02,SSE,158,0.0,0.0,55,0.00,CLR,,0.00,WeatherDisplay:10.37,2013-02-24 17:47:00,
2013-02-24 11:52:00,43.2,28.1,30.02,SSE,158,0.0,0.0,55,0.00,CLR,,0.00,WeatherDisplay:10.37,2013-02-24 17:52:00,
2013-02-24 11:57:00,42.4,27.0,30.02,SSE,158,0.0,0.0,54,0.00,CLR,,0.00,WeatherDisplay:10.37,2013-02-24 17:57:00,
2013-02-24 12:02:00,42.4,27.0,30.02,SE,135,0.0,0.0,54,0.00,CLR,,0.00,WeatherDisplay:10.37,2013-02-24 18:02:00,
2013-02-24 12:07:00,43.2,27.6,30.02,SE,135,0.0,0.0,54,0.00,CLR,,0.00,WeatherDisplay:10.37,2013-02-24 18:07:00,
2013-02-24 12:12:00,43.3,27.8,30.02,SE,135,0.0,0.0,54,0.00,CLR,,0.00,WeatherDisplay:10.37,2013-02-24 18:12:00,
2013-02-24 12:17:00,43.0,27.0,30.02,SE,135,0.0,0.0,53,0.00,CLR,,0.00,WeatherDisplay:10.37,2013-02-24 18:17:00,
2013-02-24 12:22:00,43.3,26.9,30.01,SE,135,0.0,0.0,52,0.00,CLR,,0.00,WeatherDisplay:10.37,2013-02-24 18:22:00,
2013-02-24 12:27:00,43.7,27.2,30.01,SE,135,0.0,0.0,52,0.00,CLR,,0.00,WeatherDisplay:10.37,2013-02-24 18:27:00,
2013-02-24 12:32:00,44.1,27.5,30.01,SE,135,0.0,0.0,52,0.00,CLR,,0.00,WeatherDisplay:10.37,2013-02-24 18:32:00,
2013-02-24 12:37:00,43.7,26.7,30.02,SE,135,0.0,0.0,51,0.00,CLR,,0.00,WeatherDisplay:10.37,2013-02-24 18:37:00,
2013-02-24 12:42:00,43.2,26.2,30.01,SE,135,0.0,0.0,51,0.00,CLR,,0.00,WeatherDisplay:10.37,2013-02-24 18:42:00,
2013-02-24 12:47:00,43.0,26.5,30.01,SE,135,0.0,0.0,52,0.00,CLR,,0.00,WeatherDisplay:10.37,2013-02-24 18:47:00,
2013-02-24 12:52:00,42.3,26.3,30.00,SE,135,3.5,3.5,53,0.00,CLR,,0.00,WeatherDisplay:10.37,2013-02-24 18:52:00,
2013-02-24 12:57:00,41.4,25.5,30.00,SE,135,3.5,3.5,53,0.00,CLR,,0.00,WeatherDisplay:10.37,2013-02-24 18:57:00,
2013-02-24 13:02:00,41.0,25.6,30.00,SE,135,0.0,0.0,54,0.00,CLR,,0.00,WeatherDisplay:10.37,2013-02-24 19:02:00,
2013-02-24 13:07:00,40.6,25.7,30.00,SE,135,5.8,5.8,55,0.00,CLR,,0.00,WeatherDisplay:10.37,2013-02-24 19:07:00,
2013-02-24 13:12:00,40.1,25.6,30.00,ESE,112,5.9,6.4,56,0.00,CLR,,0.00,WeatherDisplay:10.37,2013-02-24 19:12:00,
2013-02-24 13:17:00,39.6,25.1,30.00,SE,135,3.5,4.1,56,0.00,CLR,,0.00,WeatherDisplay:10.37,2013-02-24 19:17:00,
2013-02-24 13:22:00,39.2,25.6,30.00,SE,135,2.3,2.3,58,0.00,CLR,,0.00,WeatherDisplay:10.37,2013-02-24 19:22:00,
2013-02-24 13:27:00,39.4,26.2,30.00,SE,135,2.3,0.0,59,0.00,CLR,,0.00,WeatherDisplay:10.37,2013-02-24 19:27:00,
2013-02-24 13:32:00,39.2,26.1,29.99,SE,135,1.6,0.0,59,0.00,CLR,,0.00,WeatherDisplay:10.37,2013-02-24 19:32:00,
2013-02-24 13:37:00,39.4,26.2,29.99,SE,135,0.0,0.0,59,0.00,CLR,,0.00,WeatherDisplay:10.37,2013-02-24 19:37:00,
2013-02-24 13:42:00,39.7,27.0,29.99,SE,135,0.0,0.0,60,0.00,CLR,,0.00,WeatherDisplay:10.37,2013-02-24 19:42:00,
2013-02-24 13:47:00,39.9,26.7,29.99,SE,135,1.1,1.1,59,0.00,CLR,,0.00,WeatherDisplay:10.37,2013-02-24 19:47:00,
2013-02-24 13:52:00,39.9,26.7,29.99,SE,135,3.5,3.5,59,0.00,CLR,,0.00,WeatherDisplay:10.37,2013-02-24 19:52:00,
2013-02-24 13:57:00,40.1,26.9,29.99,SE,135,0.0,0.0,59,0.00,CLR,,0.00,WeatherDisplay:10.37,2013-02-24 19:57:00,
2013-02-24 14:02:00,40.1,26.9,29.99,ESE,112,3.5,3.5,59,0.00,CLR,,0.00,WeatherDisplay:10.37,2013-02-24 20:02:00,
2013-02-24 14:07:00,39.9,26.7,29.99,ESE,112,3.5,3.5,59,0.00,CLR,,0.00,WeatherDisplay:10.37,2013-02-24 20:07:00,
2013-02-24 14:12:00,39.4,26.2,29.99,ESE,112,5.1,5.5,59,0.00,CLR,,0.00,WeatherDisplay:10.37,2013-02-24 20:12:00,
2013-02-24 14:17:00,38.7,25.1,29.97,ESE,112,4.6,4.6,58,0.00,CLR,,0.00,WeatherDisplay:10.37,2013-02-24 20:17:00,
2013-02-24 14:22:00,38.7,25.6,29.97,ESE,112,5.8,5.9,59,0.00,CLR,,0.00,WeatherDisplay:10.37,2013-02-24 20:22:00,
2013-02-24 14:27:00,38.5,25.4,29.97,ESE,112,2.4,2.6,59,0.00,CLR,,0.00,WeatherDisplay:10.37,2013-02-24 20:27:00,
2013-02-24 14:32:00,38.3,25.6,29.97,ESE,112,4.6,4.6,60,0.00,CLR,,0.00,WeatherDisplay:10.37,2013-02-24 20:32:00,
2013-02-24 14:37:00,38.5,25.8,29.99,ESE,112,2.3,2.3,60,0.00,CLR,,0.00,WeatherDisplay:10.37,2013-02-24 20:37:00,
2013-02-24 14:42:00,38.7,26.4,29.99,SE,135,1.1,1.1,61,0.00,CLR,,0.00,WeatherDisplay:10.37,2013-02-24 20:42:00,
2013-02-24 14:47:00,38.8,26.5,29.97,ESE,112,0.0,0.0,61,0.00,CLR,,0.00,WeatherDisplay:10.37,2013-02-24 20:47:00,
2013-02-24 14:52:00,38.8,26.5,29.97,ESE,112,4.6,0.0,61,0.00,CLR,,0.00,WeatherDisplay:10.37,2013-02-24 20:52:00,
2013-02-24 14:57:00,38.8,26.5,29.97,ESE,112,2.7,2.9,61,0.00,CLR,,0.00,WeatherDisplay:10.37,2013-02-24 20:57:00,
2013-02-24 15:02:00,38.5,26.2,29.97,ESE,112,0.0,1.1,61,0.00,CLR,,0.00,WeatherDisplay:10.37,2013-02-24 21:02:00,
2013-02-24 15:07:00,38.7,26.4,29.97,ESE,112,0.0,0.0,61,0.00,CLR,,0.00,WeatherDisplay:10.37,2013-02-24 21:07:00,
2013-02-24 15:12:00,38.7,26.4,29.97,East,90,0.0,0.0,61,0.00,CLR,,0.00,WeatherDisplay:10.37,2013-02-24 21:12:00,
2013-02-24 15:17:00,38.7,26.8,29.97,ESE,112,2.3,2.3,62,0.00,CLR,,0.00,WeatherDisplay:10.37,2013-02-24 21:17:00,
2013-02-24 15:22:00,38.7,26.8,29.97,ESE,112,2.3,2.3,62,0.00,CLR,,0.00,WeatherDisplay:10.37,2013-02-24 21:22:00,
2013-02-24 15:27:00,38.7,27.1,29.97,ESE,112,0.0,0.0,63,0.00,CLR,,0.00,WeatherDisplay:10.37,2013-02-24 21:27:00,
2013-02-24 15:32:00,38.8,27.7,29.97,ESE,112,0.0,0.1,64,0.00,CLR,,0.00,WeatherDisplay:10.37,2013-02-24 21:32:00,
2013-02-24 15:37:00,39.4,28.2,29.97,ESE,112,4.6,0.0,64,0.00,CLR,,0.00,WeatherDisplay:10.37,2013-02-24 21:37:00,
2013-02-24 15:42:00,39.6,28.0,29.97,ESE,112,0.0,0.0,63,0.00,CLR,,0.00,WeatherDisplay:10.37,2013-02-24 21:42:00,
2013-02-24 15:47:00,39.2,27.7,29.97,ESE,112,0.0,0.0,63,0.00,CLR,,0.00,WeatherDisplay:10.37,2013-02-24 21:47:00,
2013-02-24 15:52:00,38.8,27.3,29.97,ESE,112,0.0,0.0,63,0.00,CLR,,0.00,WeatherDisplay:10.37,2013-02-24 21:52:00,
2013-02-24 15:57:00,38.8,27.7,29.97,ESE,112,0.0,0.0,64,0.00,CLR,,0.00,WeatherDisplay:10.37,2013-02-24 21:57:00,
2013-02-24 16:02:00,38.7,27.5,29.97,ESE,112,0.0,0.0,64,0.00,CLR,,0.00,WeatherDisplay:10.37,2013-02-24 22:02:00,
2013-02-24 16:07:00,38.7,27.5,29.97,ESE,112,0.0,0.0,64,0.00,CLR,,0.00,WeatherDisplay:10.37,2013-02-24 22:07:00,
2013-02-24 16:12:00,38.7,27.9,29.97,ENE,68,0.0,0.0,65,0.00,CLR,,0.00,WeatherDisplay:10.37,2013-02-24 22:12:00,
2013-02-24 16:17:00,38.5,28.1,29.97,ESE,112,0.0,0.0,66,0.00,CLR,,0.00,WeatherDisplay:10.37,2013-02-24 22:17:00,
2013-02-24 16:22:00,38.3,28.3,29.97,ENE,68,0.0,0.0,67,0.00,CLR,,0.00,WeatherDisplay:10.37,2013-02-24 22:22:00,
2013-02-24 16:27:00,37.8,28.1,29.97,ENE,68,4.3,4.3,68,0.00,CLR,,0.00,WeatherDisplay:10.37,2013-02-24 22:27:00,
2013-02-24 16:32:00,37.2,27.6,29.97,ENE,68,4.6,4.9,68,0.00,CLR,,0.00,WeatherDisplay:10.37,2013-02-24 22:32:00,
2013-02-24 16:37:00,36.9,27.3,29.97,ENE,68,5.1,5.5,68,0.00,CLR,,0.00,WeatherDisplay:10.37,2013-02-24 22:37:00,
2013-02-24 16:42:00,36.1,26.9,29.97,ENE,68,2.2,2.2,69,0.00,CLR,,0.00,WeatherDisplay:10.37,2013-02-24 22:42:00,
2013-02-24 16:47:00,35.8,26.6,29.97,ENE,68,1.1,1.1,69,0.00,CLR,,0.00,WeatherDisplay:10.37,2013-02-24 22:47:00,
2013-02-24 16:52:00,35.8,26.9,29.97,ENE,68,3.5,4.1,70,0.00,CLR,,0.00,WeatherDisplay:10.37,2013-02-24 22:52:00,
2013-02-24 16:57:00,35.4,26.9,29.97,ENE,68,0.0,0.8,71,0.00,CLR,,0.00,WeatherDisplay:10.37,2013-02-24 22:57:00,
2013-02-24 17:02:00,35.4,26.9,29.97,ENE,68,3.5,3.5,71,0.00,CLR,,0.00,WeatherDisplay:10.37,2013-02-24 23:02:00,
2013-02-24 17:07:00,35.1,26.9,29.99,ENE,68,3.5,3.5,72,0.00,CLR,,0.00,WeatherDisplay:10.37,2013-02-24 23:07:00,
2013-02-24 17:12:00,35.1,26.9,29.99,ENE,68,0.0,0.0,72,0.00,CLR,,0.00,WeatherDisplay:10.37,2013-02-24 23:12:00,
2013-02-24 17:17:00,34.9,26.8,29.99,ENE,68,0.0,0.0,72,0.00,CLR,,0.00,WeatherDisplay:10.37,2013-02-24 23:17:00,
2013-02-24 17:22:00,34.9,26.8,29.99,ENE,68,0.0,0.0,72,0.00,CLR,,0.00,WeatherDisplay:10.37,2013-02-24 23:22:00,
2013-02-24 17:27:00,34.5,26.8,29.99,ENE,68,0.0,0.0,73,0.00,CLR,,0.00,WeatherDisplay:10.37,2013-02-24 23:27:00,
2013-02-24 17:32:00,34.5,26.8,29.99,ENE,68,0.0,0.0,73,0.00,CLR,,0.00,WeatherDisplay:10.37,2013-02-24 23:32:00,
2013-02-24 17:37:00,34.3,26.6,29.99,ENE,68,0.0,0.0,73,0.00,CLR,,0.00,WeatherDisplay:10.37,2013-02-24 23:37:00,
2013-02-24 17:42:00,34.0,26.6,29.99,ENE,68,0.0,0.0,74,0.00,CLR,,0.00,WeatherDisplay:10.37,2013-02-24 23:42:00,
2013-02-24 17:47:00,34.0,26.6,29.99,ENE,68,0.0,0.0,74,0.00,CLR,,0.00,WeatherDisplay:10.37,2013-02-24 23:47:00,
2013-02-24 17:52:00,33.8,26.4,29.99,ENE,68,0.0,0.0,74,0.00,CLR,,0.00,WeatherDisplay:10.37,2013-02-24 23:52:00,
2013-02-24 17:57:00,33.4,26.4,29.99,ENE,68,0.0,0.0,75,0.00,CLR,,0.00,WeatherDisplay:10.37,2013-02-24 23:57:00,
2013-02-24 18:02:00,33.3,26.2,29.99,ENE,68,0.0,0.0,75,0.00,CLR,,0.00,WeatherDisplay:10.37,2013-02-25 00:02:00,
2013-02-24 18:07:00,33.1,26.0,30.00,ENE,68,0.0,0.0,75,0.00,CLR,,0.00,WeatherDisplay:10.37,2013-02-25 00:07:00,
2013-02-24 18:12:00,32.9,26.2,29.99,ENE,68,0.0,0.0,76,0.00,CLR,,0.00,WeatherDisplay:10.37,2013-02-25 00:12:00,
2013-02-24 18:17:00,32.9,26.2,30.00,ENE,68,0.0,0.0,76,0.00,CLR,,0.00,WeatherDisplay:10.37,2013-02-25 00:17:00,
2013-02-24 18:22:00,32.7,26.0,30.00,ENE,68,0.0,0.0,76,0.00,CLR,,0.00,WeatherDisplay:10.37,2013-02-25 00:22:00,
2013-02-24 18:27:00,32.5,25.8,30.00,ENE,68,0.0,0.0,76,0.00,CLR,,0.00,WeatherDisplay:10.37,2013-02-25 00:27:00,
2013-02-24 18:32:00,32.2,25.5,30.00,ENE,68,0.0,0.0,76,0.00,CLR,,0.00,WeatherDisplay:10.37,2013-02-25 00:32:00,
2013-02-24 18:37:00,32.2,25.5,30.01,ENE,68,0.0,0.0,76,0.00,CLR,,0.00,WeatherDisplay:10.37,2013-02-25 00:37:00,
2013-02-24 18:42:00,32.2,25.8,30.00,ENE,68,0.0,0.0,77,0.00,CLR,,0.00,WeatherDisplay:10.37,2013-02-25 00:42:00,
2013-02-24 18:47:00,32.2,25.8,30.00,ENE,68,1.6,1.7,77,0.00,CLR,,0.00,WeatherDisplay:10.37,2013-02-25 00:47:00,
2013-02-24 18:52:00,32.4,26.0,30.01,ENE,68,4.6,4.6,77,0.00,CLR,,0.00,WeatherDisplay:10.37,2013-02-25 00:52:00,
2013-02-24 18:57:00,32.2,25.8,30.00,ENE,68,0.0,0.0,77,0.00,CLR,,0.00,WeatherDisplay:10.37,2013-02-25 00:57:00,
2013-02-24 19:02:00,32.2,25.8,30.01,ENE,68,0.0,0.0,77,0.00,CLR,,0.00,WeatherDisplay:10.37,2013-02-25 01:02:00,
2013-02-24 19:07:00,31.8,25.4,30.01,ENE,68,0.0,0.0,77,0.00,CLR,,0.00,WeatherDisplay:10.37,2013-02-25 01:07:00,
2013-02-24 19:12:00,31.6,25.3,30.02,ENE,68,0.0,0.0,77,0.00,CLR,,0.00,WeatherDisplay:10.37,2013-02-25 01:12:00,
2013-02-24 19:17:00,31.3,24.9,30.02,ENE,68,0.0,0.0,77,0.00,CLR,,0.00,WeatherDisplay:10.37,2013-02-25 01:17:00,
2013-02-24 19:22:00,31.1,24.7,30.02,ENE,68,0.0,0.0,77,0.00,CLR,,0.00,WeatherDisplay:10.37,2013-02-25 01:22:00,
2013-02-24 19:27:00,30.9,24.9,30.02,ENE,68,0.0,0.0,78,0.00,CLR,,0.00,WeatherDisplay:10.37,2013-02-25 01:27:00,
2013-02-24 19:32:00,30.9,25.2,30.02,ENE,68,0.0,0.0,79,0.00,CLR,,0.00,WeatherDisplay:10.37,2013-02-25 01:32:00,
2013-02-24 19:37:00,30.7,25.0,30.02,ENE,68,0.0,0.0,79,0.00,CLR,,0.00,WeatherDisplay:10.37,2013-02-25 01:37:00,
2013-02-24 19:42:00,30.6,24.8,30.02,ENE,68,0.0,0.0,79,0.00,CLR,,0.00,WeatherDisplay:10.37,2013-02-25 01:42:00,
2013-02-24 19:47:00,30.6,24.8,30.02,ENE,68,0.0,0.0,79,0.00,CLR,,0.00,WeatherDisplay:10.37,2013-02-25 01:47:00,
2013-02-24 19:52:00,30.0,24.3,30.02,ENE,68,0.0,0.0,79,0.00,CLR,,0.00,WeatherDisplay:10.37,2013-02-25 01:52:00,
2013-02-24 19:57:00,29.7,23.9,30.01,ENE,68,0.0,0.0,79,0.00,CLR,,0.00,WeatherDisplay:10.37,2013-02-25 01:57:00,
2013-02-24 20:02:00,29.1,23.4,30.01,ENE,68,0.0,0.0,79,0.00,CLR,,0.00,WeatherDisplay:10.37,2013-02-25 02:02:00,
2013-02-24 20:07:00,28.6,22.9,30.01,ENE,68,0.0,0.0,79,0.00,CLR,,0.00,WeatherDisplay:10.37,2013-02-25 02:07:00,
2013-02-24 20:12:00,28.2,22.5,30.01,East,90,2.3,2.3,79,0.00,CLR,,0.00,WeatherDisplay:10.37,2013-02-25 02:12:00,
2013-02-24 20:17:00,28.0,22.7,30.02,ESE,112,0.0,0.0,80,0.00,CLR,,0.00,WeatherDisplay:10.37,2013-02-25 02:17:00,
2013-02-24 20:22:00,28.0,23.0,30.01,East,90,0.0,0.0,81,0.00,CLR,,0.00,WeatherDisplay:10.37,2013-02-25 02:22:00,
2013-02-24 20:27:00,28.0,23.0,30.02,ESE,112,0.0,0.0,81,0.00,CLR,,0.00,WeatherDisplay:10.37,2013-02-25 02:27:00,
2013-02-24 20:32:00,28.0,23.3,30.02,ESE,112,0.0,0.0,82,0.00,CLR,,0.00,WeatherDisplay:10.37,2013-02-25 02:32:00,
2013-02-24 20:37:00,28.0,23.3,30.02,East,90,0.0,0.0,82,0.00,CLR,,0.00,WeatherDisplay:10.37,2013-02-25 02:37:00,
2013-02-24 20:42:00,27.9,23.1,30.02,East,90,0.0,0.0,82,0.00,CLR,,0.00,WeatherDisplay:10.37,2013-02-25 02:42:00,
2013-02-24 20:47:00,27.9,23.1,30.02,ESE,112,0.0,0.0,82,0.00,CLR,,0.00,WeatherDisplay:10.37,2013-02-25 02:47:00,
2013-02-24 20:52:00,27.9,23.4,30.02,ESE,112,0.0,0.0,83,0.00,CLR,,0.00,WeatherDisplay:10.37,2013-02-25 02:52:00,
2013-02-24 20:57:00,27.7,23.2,30.02,ESE,112,0.0,0.0,83,0.00,CLR,,0.00,WeatherDisplay:10.37,2013-02-25 02:57:00,
2013-02-24 21:02:00,27.5,22.7,30.02,ESE,112,0.0,0.0,82,0.00,CLR,,0.00,WeatherDisplay:10.37,2013-02-25 03:02:00,
2013-02-24 21:07:00,27.3,22.5,30.02,ESE,112,0.0,0.0,82,0.00,CLR,,0.00,WeatherDisplay:10.37,2013-02-25 03:07:00,
2013-02-24 21:12:00,27.3,22.5,30.02,ESE,112,0.0,0.0,82,0.00,CLR,,0.00,WeatherDisplay:10.37,2013-02-25 03:12:00,
2013-02-24 21:17:00,27.1,22.4,30.02,ESE,112,1.1,1.1,82,0.00,CLR,,0.00,WeatherDisplay:10.37,2013-02-25 03:17:00,
2013-02-24 21:22:00,27.1,22.4,30.03,ESE,112,0.0,0.0,82,0.00,CLR,,0.00,WeatherDisplay:10.37,2013-02-25 03:22:00,
2013-02-24 21:27:00,27.1,22.4,30.02,ESE,112,0.0,0.0,82,0.00,CLR,,0.00,WeatherDisplay:10.37,2013-02-25 03:27:00,
2013-02-24 21:32:00,27.0,22.5,30.02,ESE,112,0.0,0.0,83,0.00,CLR,,0.00,WeatherDisplay:10.37,2013-02-25 03:32:00,
2013-02-24 21:37:00,27.1,22.7,30.02,ESE,112,0.0,0.0,83,0.00,CLR,,0.00,WeatherDisplay:10.37,2013-02-25 03:37:00,
2013-02-24 21:42:00,27.5,23.3,30.02,ESE,112,0.0,0.0,84,0.00,CLR,,0.00,WeatherDisplay:10.37,2013-02-25 03:42:00,
2013-02-24 21:47:00,27.5,23.3,30.02,ESE,112,0.0,0.0,84,0.00,CLR,,0.00,WeatherDisplay:10.37,2013-02-25 03:47:00,
2013-02-24 21:52:00,27.9,23.7,30.03,SE,135,0.0,0.0,84,0.00,CLR,,0.00,WeatherDisplay:10.37,2013-02-25 03:52:00,
2013-02-24 21:57:00,28.0,23.8,30.04,SE,135,0.0,0.0,84,0.00,CLR,,0.00,WeatherDisplay:10.37,2013-02-25 03:57:00,
2013-02-24 22:02:00,28.4,24.2,30.04,SE,135,0.0,0.0,84,0.00,CLR,,0.00,WeatherDisplay:10.37,2013-02-25 04:02:00,
2013-02-24 22:07:00,28.6,24.4,30.04,SE,135,0.0,0.0,84,0.00,CLR,,0.00,WeatherDisplay:10.37,2013-02-25 04:07:00,
2013-02-24 22:12:00,28.8,24.5,30.04,SE,135,0.0,0.0,84,0.00,CLR,,0.00,WeatherDisplay:10.37,2013-02-25 04:12:00,
2013-02-24 22:17:00,28.8,24.5,30.04,SE,135,0.0,0.0,84,0.00,CLR,,0.00,WeatherDisplay:10.37,2013-02-25 04:17:00,
2013-02-24 22:22:00,28.9,24.7,30.04,SSE,158,2.3,2.3,84,0.00,CLR,,0.00,WeatherDisplay:10.37,2013-02-25 04:22:00,
2013-02-24 22:27:00,29.1,24.9,30.05,SSE,158,1.1,1.1,84,0.00,CLR,,0.00,WeatherDisplay:10.37,2013-02-25 04:27:00,
2013-02-24 22:32:00,29.1,24.9,30.05,SSE,158,1.1,1.2,84,0.00,CLR,,0.00,WeatherDisplay:10.37,2013-02-25 04:32:00,
2013-02-24 22:37:00,29.3,24.8,30.04,SSE,158,0.0,0.0,83,0.00,CLR,,0.00,WeatherDisplay:10.37,2013-02-25 04:37:00,
2013-02-24 22:43:00,29.5,25.0,30.04,SSE,158,0.0,0.0,83,0.00,CLR,,0.00,WeatherDisplay:10.37,2013-02-25 04:43:00,
2013-02-24 22:48:00,29.5,25.0,30.04,SSE,158,0.0,0.0,83,0.00,CLR,,0.00,WeatherDisplay:10.37,2013-02-25 04:48:00,
2013-02-24 22:53:00,29.5,25.0,30.04,SSE,158,0.0,0.0,83,0.00,CLR,,0.00,WeatherDisplay:10.37,2013-02-25 04:53:00,
2013-02-24 22:58:00,29.7,25.4,30.03,SSE,158,0.0,0.0,84,0.00,CLR,,0.00,WeatherDisplay:10.37,2013-02-25 04:58:00,
2013-02-24 23:00:00,29.7,25.4,30.04,SSE,158,0.0,0.0,84,0.00,CLR,,0.00,WeatherDisplay:10.37,2013-02-25 05:00:00,
2013-02-24 23:01:00,29.7,25.4,30.03,SSE,158,0.0,0.0,84,0.00,CLR,,0.00,WeatherDisplay:10.37,2013-02-25 05:01:00,
2013-02-24 23:06:00,29.7,25.4,30.04,SSE,158,0.0,0.0,84,0.00,CLR,,0.00,WeatherDisplay:10.37,2013-02-25 05:06:00,
2013-02-24 23:11:00,29.8,25.6,30.04,SSE,158,0.0,0.0,84,0.00,CLR,,0.00,WeatherDisplay:10.37,2013-02-25 05:11:00,
2013-02-24 23:16:00,30.0,25.8,30.04,SSE,158,0.0,0.0,84,0.00,CLR,,0.00,WeatherDisplay:10.37,2013-02-25 05:16:00,
2013-02-24 23:21:00,30.0,25.8,30.04,SSE,158,0.0,0.0,84,0.00,CLR,,0.00,WeatherDisplay:10.37,2013-02-25 05:21:00,
2013-02-24 23:26:00,30.2,25.9,30.04,SSE,158,0.0,0.0,84,0.00,CLR,,0.00,WeatherDisplay:10.37,2013-02-25 05:26:00,
2013-02-24 23:31:00,30.0,25.8,30.04,SSE,158,0.0,0.0,84,0.00,CLR,,0.00,WeatherDisplay:10.37,2013-02-25 05:31:00,
2013-02-24 23:36:00,30.4,26.1,30.04,SSE,158,0.0,0.0,84,0.00,CLR,,0.00,WeatherDisplay:10.37,2013-02-25 05:36:00,
2013-02-24 23:41:00,30.4,26.1,30.04,SSE,158,0.0,0.0,84,0.00,CLR,,0.00,WeatherDisplay:10.37,2013-02-25 05:41:00,
2013-02-24 23:46:00,30.4,26.1,30.04,SSE,158,0.0,0.0,84,0.00,CLR,,0.00,WeatherDisplay:10.37,2013-02-25 05:46:00,
2013-02-24 23:51:00,30.4,26.1,30.04,SSE,158,0.0,0.0,84,0.00,CLR,,0.00,WeatherDisplay:10.37,2013-02-25 05:51:00,
2013-02-24 23:56:00,30.4,26.1,30.04,SSE,158,0.0,0.0,84,0.00,CLR,,0.00,WeatherDisplay:10.37,2013-02-25 05:56:00,